FW2439 Weather Reports


time (UTC)temp
C
wind
direction
speed
KPH
gust
KPH
rain 1hr
cm
rain 24hr
cm
rain mn
cm
humidity
%
barometer
mb
20260901161531 33 251 0.0 6.4 0.00 0.00 0.00 61 1019.6
20260901160030 34 223 1.6 6.4 0.00 0.00 0.00 62 1019.6
20260901154545 34 224 1.6 6.4 0.00 0.00 0.00 62 1019.5
20260901153037 33 274 0.0 4.8 0.00 0.00 0.00 65 1019.6
20260901151526 33 231 0.0 1.6 0.00 0.00 0.00 65 1019.7
20260901150022 33 228 1.6 3.2 0.00 0.00 0.00 68 1019.5
20260901144521 32 222 0.0 1.6 0.00 0.00 0.00 72 1019.5
20260901143015 30 214 0.0 1.6 0.00 0.00 0.00 77 1019.6
20260901141514 29 221 1.6 4.8 0.00 0.00 0.00 79 1019.7
20260901140006 27 225 0.0 3.2 0.00 0.00 0.00 87 1019.7
20260901134501 26 228 0.0 0.0 0.00 0.00 0.00 93 1019.7
20260901133106 24 237 0.0 1.6 0.00 0.00 0.00 96 1019.7
20260901131554 23 237 0.0 1.6 0.00 0.00 0.00 98 1019.8
20260901130048 22 237 0.0 0.0 0.00 0.00 0.00 100 1019.8
20260901124547 22 237 0.0 0.0 0.00 0.00 0.00 100 1019.7
20260901123045 22 237 0.0 0.0 0.00 0.00 0.00 100 1019.5
20260901121550 21 237 0.0 0.0 0.00 0.00 0.00 99 1019.4
20260901120042 21 237 0.0 0.0 0.00 0.00 0.00 99 1019.3
20260901114543 21 237 0.0 0.0 0.00 0.00 0.00 99 1019.2
20260901113041 21 237 0.0 0.0 0.00 0.00 0.00 99 1019.0
20260901111537 21 237 0.0 0.0 0.00 0.00 0.00 99 1018.9
20260901110044 21 237 0.0 0.0 0.00 0.00 0.00 99 1018.6
20260901104542 21 237 0.0 0.0 0.00 0.00 0.00 99 1018.5
20260901103041 21 237 0.0 0.0 0.00 0.00 0.00 99 1018.6
20260901101535 21 237 0.0 0.0 0.00 0.00 0.00 99 1018.4
20260901100048 21 237 0.0 0.0 0.00 0.00 0.00 99 1018.3
20260901094533 21 237 0.0 0.0 0.00 0.00 0.00 99 1018.3
20260901093031 21 237 0.0 0.0 0.00 0.00 0.00 98 1018.3
20260901091534 22 237 0.0 0.0 0.00 0.00 0.00 99 1018.4
20260901090044 22 237 0.0 0.0 0.00 0.00 0.00 98 1018.0
20260901084528 22 237 0.0 0.0 0.00 0.00 0.00 98 1017.9
20260901083027 22 237 0.0 0.0 0.00 0.00 0.00 98 1018.0
20260901081528 22 237 0.0 0.0 0.00 0.00 0.00 98 1018.1
20260901080024 22 237 0.0 0.0 0.00 0.00 0.00 98 1017.9
20260901074523 22 237 0.0 0.0 0.00 0.00 0.00 97 1017.9
20260901073028 22 237 0.0 0.0 0.00 0.00 0.00 97 1017.8
20260901071522 22 237 0.0 0.0 0.00 0.00 0.00 97 1017.8
20260901070019 22 237 0.0 0.0 0.00 0.00 0.00 97 1017.7
20260901064521 22 237 0.0 0.0 0.00 0.00 0.00 97 1017.7
20260901063017 22 237 0.0 0.0 0.00 0.00 0.00 96 1017.9
20260901061516 22 237 0.0 0.0 0.00 0.00 0.00 96 1017.8
20260901060020 22 237 0.0 0.0 0.00 0.00 0.00 96 1017.8
20260901054518 22 237 0.0 0.0 0.00 0.00 0.00 96 1017.8
20260901053007 23 237 0.0 0.0 0.00 0.00 0.00 96 1017.7
20260901051503 23 237 0.0 0.0 0.00 0.00 0.00 95 1017.8
20260901050059 23 237 0.0 0.0 0.00 0.00 0.00 94 1017.9
20260901044600 23 237 0.0 0.0 0.00 0.00 0.00 94 1017.7
20260901043059 23 237 0.0 0.0 0.00 0.00 0.00 94 1017.7
20260901041557 23 237 0.0 0.0 0.00 0.00 0.00 94 1017.5
20260901040057 23 237 0.0 0.0 0.00 0.00 0.00 93 1017.7
20260901034556 23 237 0.0 0.0 0.00 0.00 0.00 93 1017.5
20260901033056 24 237 0.0 0.0 0.00 0.00 0.00 92 1017.8
20260901031554 24 237 0.0 0.0 0.00 0.00 0.00 92 1017.6
20260901030053 24 237 0.0 0.0 0.00 0.00 0.00 91 1017.5
20260901024554 25 237 0.0 0.0 0.00 0.00 0.00 91 1017.5
20260901023055 25 237 0.0 0.0 0.00 0.00 0.00 91 1017.5
20260901021556 25 237 0.0 0.0 0.00 0.00 0.00 90 1017.3
20260901020053 25 237 0.0 0.0 0.00 0.00 0.00 89 1017.2
20260901014551 26 237 0.0 0.0 0.00 0.00 0.00 88 1016.9
20260901013102 26 237 0.0 0.0 0.00 0.00 0.00 87 1016.8
20260901011552 27 237 0.0 0.0 0.00 0.00 0.00 86 1016.6
20260901010054 27 237 0.0 0.0 0.00 0.00 0.00 83 1016.4
20260901004557 28 237 0.0 0.0 0.00 0.00 0.00 81 1016.3
20260901003056 28 237 0.0 0.0 0.00 0.00 0.00 78 1016.4
20260901001548 30 237 0.0 0.0 0.00 0.00 0.00 75 1016.4
20260901000049 30 237 0.0 0.0 0.00 0.00 0.00 72 1016.5
20260831234546 31 237 0.0 0.0 0.00 0.00 0.00 70 1016.6
20260831233044 32 237 0.0 0.0 0.00 0.00 0.00 66 1016.7
20260831231551 32 236 0.0 0.0 0.00 0.00 0.00 64 1016.7
20260831230045 33 237 0.0 0.0 0.00 0.00 0.00 62 1016.8
20260831224540 35 236 0.0 1.6 0.00 0.00 0.00 58 1016.9
20260831223040 35 245 0.0 3.2 0.00 0.00 0.00 57 1016.7
20260831221533 34 235 0.0 1.6 0.00 0.00 0.00 63 1017.1
20260831220033 33 235 0.0 1.6 0.00 0.00 0.00 66 1017.0
20260831214533 32 235 0.0 0.0 0.00 0.00 0.00 67 1017.1
20260831213039 33 235 0.0 1.6 0.00 0.00 0.00 62 1017.0
20260831211531 34 211 0.0 1.6 0.00 0.00 0.00 59 1017.1
20260831210028 35 278 0.0 4.8 0.00 0.00 0.00 57 1017.1
20260831204533 35 223 0.0 6.4 0.00 0.00 0.00 55 1017.3
20260831203029 35 248 0.0 6.4 0.00 0.00 0.00 51 1017.3
20260831201535 35 322 1.6 6.4 0.00 0.00 0.00 53 1017.4
20260831200026 35 210 0.0 8.0 0.00 0.00 0.00 54 1017.5
20260831194545 35 239 0.0 4.8 0.00 0.00 0.00 54 1017.9
20260831193021 35 197 1.6 6.4 0.00 0.00 0.00 55 1018.1
20260831191521 35 226 1.6 4.8 0.00 0.00 0.00 53 1018.3
20260831190019 34 227 1.6 8.0 0.00 0.00 0.00 55 1018.4
20260831184514 33 242 0.0 11.3 0.00 0.00 0.00 56 1018.6
20260831183012 33 205 0.0 8.0 0.00 0.00 0.00 59 1018.9
20260831181508 33 227 0.0 4.8 0.00 0.00 0.00 62 1019.1
20260831180007 32 259 0.0 1.6 0.00 0.00 0.00 65 1019.4
20260831174513 32 252 0.0 1.6 0.00 0.00 0.00 67 1019.7
20260831173006 32 251 0.0 3.2 0.00 0.00 0.00 64 1019.8
20260831171505 32 177 0.0 4.8 0.00 0.00 0.00 64 1019.8
20260831170006 32 340 1.6 6.4 0.00 0.00 0.00 64 1020.0
20260831164504 32 224 1.6 4.8 0.00 0.00 0.00 65 1020.0
20260831163003 33 219 1.6 6.4 0.00 0.00 0.00 63 1020.1